SL-16 DEB, 22453

Orbit data source: Space-Track

SL-16 DEB, 22453 is space debris in LEO originally from a launch on Fri, 25 Dec 1992 UTC launched from the Tyuratam Missile And Space Complex (TTMTR). Debris objects in space refer to the collection of defunct objects orbiting the Earth. Examples of debris include non-operational satellites, rocket bodies, and fragments generated from explosions, collisions, or faulty payload assembly.

Loading next visibility...
Identifier
22453, 1992-093ES
Orbit
LEO
Country
Flag of CISCIS
Related business
Manufacturer
Unknown
Mission
Spacecraft
Bus & Motor
Unknown
Mass
Unknown
Launch date (UTC)
1992-12-25 (33 years ago)
Launch vehicle
Unknown
Launch site
Tyuratam Missile And Space Complex (TTMTR)
Object type
Payload
Rocket body
Debris
Shape & HBR
Unknown shape, 0.1 m
Radar Cross Section
Small (<0.1 m²)

Expand to show TLE details & history
Last TLE update: 13 hours ago

TLE from 13 hours ago
0 SL-16 DEB
1 22453U 92093ES  25296.67581417  .00001171  00000-0  90444-3 0  9996
2 22453  70.8034 255.7267 0164378  64.1412 353.1219 13.88759748654291
Epoch: 2025-10-23T16:13Z
TLE epoch observation values (Epoch: 2025-10-23T16:13:10.344Z)
Latitude
52.51659°
Longitude
6.94849°
Altitude
821.655 km
Speed
7.508 km/s
True Right ascension
18h 50m 17s
True Declination
52° 21' 07"
Sunlit
Object was in daylight at epoch
Visualization orbit readout
Latitude
Unknown
Longitude
Unknown
Altitude
Unknown
Speed
Unknown
Apparent Right ascension
Unknown
Apparent Declination
Unknown
Sunlit
N/A
Visualization observer readout
Local Sidereal Time
00:09:36
Azimuth
Unknown
Elevation
Unknown
Doppler factor
Unknown
Orbital elements
Apogee altitude
1,051.095 km
Perigee altitude
810.804 km
Semi-major axis
7,309.087 km
Eccentricity
0.01644
Inclination
70.8034°
RAAN
255.7267°
Arg. of periapsis
64.1412°
True anomaly
352.89163°
Mean anomaly
353.1219°
Eccentric anomaly
353.00724°
Mean motion
3.47335 °/min
Orbital period
103.65 mins
BSTAR
0.00090444
Loading maneuver chart data...
Computing Atmospheric mass density...
Loading historical data...
Loading historical data...
Loading historical data...
Loading historical data...
Loading historical data...
Loading historical data...
Loading historical data...

Documentation

Showing up to 5 results
|